Погода в Нечкине

Россия / Удмуртская Республика     56°38′56″N   53°45′38″E
темп.,
°C
ветер,
м/с
пор.,
м/с
влажн.,
%
обл.,
%
осадки,
мм/ч
давл.,
гПа
погр.,
м
23 сентября, чт
чт2301:00+4в23897 0.0 102540
04:00+3в22905 0.0 102626
07:00+3в24845 0.0 102672
10:00+11вюв35545 0.0 1026409
13:00+15юв344279 0.0 10261054
16:00+13ююв2253100 0.0 102573
19:00+11в2558100 0.0 102492
22:00+10вюв3960100 0.0 1024236
24 сентября, пт
пт2401:00+9вюв3965100 0.0 1023236
04:00+7вюв31171100 0.0 1022238
07:00+9юв41161100 0.0 1022377
10:00+10юв41259100 0.0 1022602
13:00+10юв51261100 0.0 1021590
16:00+12ююв6115585 0.0 1020711
19:00+10юв51150100 0.0 1020442
22:00+9ююв41160100 0.2 1020544
25 сентября, сб
сб2501:00+7юв41292100 2.1 1020634
04:00+7юв41295100 7.7 1019625
07:00+7вюв41091100 1.3 1017489
10:00+10в51270100 1.4 1015535
13:00+12вюв4957100 0.0 1013819
16:00+13юв4950100 0.0 1013602
19:00+11вюв51160100 0.0 1014569
22:00+9вюв41376100 0.1 1013479
26 сентября, вс
вс2601:00+9вюв51285100 0.0 1013478
04:00+9в61186100 0.2 1012318
07:00+8всв31184100 0.0 1011431
10:00+11вюв51159100 0.0 1011525
13:00+13вюв6955100 0.0 1012839
16:00+9вюв51176100 0.3 1013717
19:00+8вюв61286100 0.3 1014723
22:00+8в61278100 0.8 1014802
27 сентября, пн
пн2701:00+7в61189100 0.3 1015753
04:00+6в61273100 0.8 1016733
07:00+5всв61275100 0.0 1018928
10:00+6всв61166100 0.0 1019784
13:00+9всв71048100 0.0 10201101
16:00+10всв611445 0.0 10211418
19:00+6всв511545 0.0 1024403
22:00+4всв412650 0.0 1025461